Location: Cuiry
(49.3858°N, 3.7708°E)
Time: 06:05:10
(UTC+00:00)

NOSS 3-4 (A) - Pass Details

Date: 12 January 2026
Orbit: 769 x 1442 km, 63.4° (Epoch: 10 January)

Event Time Altitude Azimuth Distance (km) Brightness Sun altitude
Rises 17:31:54 0° 186° (S) 3,226 6.6 -12.8°
Reaches altitude 10° 17:34:29 10° 175° (S) 2,316 5.7 -13.2°
Maximum altitude 17:38:59 30° 116° (ESE) 1,424 4.0 -13.9°
Enters shadow 17:41:28 21° 75° (ENE) 1,790 4.3 -14.3°
